Weather History for Langdon, ND

Change the Weather History Date:

Friday, December 13, 2013

  Actual Average (KDVL) Record (KDVL)
Temperature  
Mean Temperature -9 °F -  
Max Temperature -7 °F 18 °F 42 °F (2002)
Min Temperature -11 °F 3 °F -20 °F (1989)
Degree Days  
Heating Degree Days 74    
Moisture  
Dew Point -17 °F    
Average Humidity 69    
Maximum Humidity 77    
Minimum Humidity 59    
Precipitation  
Precipitation 0.06 in - - ()
Sea Level Pressure  
Sea Level Pressure 30.27 in    
Wind  
Wind Speed 13 mph (ENE)    
Max Wind Speed 17 mph    
Max Gust Speed 21 mph    
Visibility 7 miles    
Events Rain , Snow    
Averages and records for this station are not official NWS values.
T = Trace of Precipitation, MM = Missing Value Source: NWS Daily Summary

Daily Weather History Graph

Daily Weather History Graph

Search for Another Location

Airport:

Trip Planner

Search our weather history database for the weather conditions in past years. The results will help you decide how hot, cold, wet, or windy it might be!

Date:

Astronomy

Dec. 13, 2013 Rise Set
Actual Time 8:18 AM CST 4:37 PM CST
Civil Twilight 7:41 AM CST 5:14 PM CST
Nautical Twilight 7:01 AM CST 5:54 PM CST
Astronomical Twilight 6:22 AM CST 6:32 PM CST
Moon 2:32 PM CST (12/13) 4:29 AM CST (12/13)
Length of Visible Light 9h 32m
Length of Day
8h 18m
Waxing Gibbous, 88% of the Moon is Illuminated
Dec 13
Waxing Gibbous
Dec 17
Full
Dec 25
Last Quarter
Jan 1
New
Jan 7
First Quarter

Hourly Weather History & Observations

Time (CST) Temp. Windchill Dew Point Humidity Pressure Visibility Wind Dir Wind Speed Gust Speed Precip Events Conditions
12:15 AM -7.6 °F -28.3 °F -13.0 °F 77% 30.21 in 9.0 mi NE 13.8 mph - N/A   Overcast
12:35 AM -7.6 °F -28.3 °F -13.0 °F 77% 30.21 in 2.5 mi ENE 13.8 mph - N/A Snow Light Snow
12:55 AM -7.6 °F -27.5 °F -13.0 °F 77% 30.21 in 2.5 mi ENE 12.7 mph - N/A Snow Light Snow
1:15 AM -7.6 °F -29.1 °F -13.0 °F 77% 30.21 in 2.0 mi NE 15.0 mph - N/A Snow Light Snow
1:35 AM -7.6 °F -28.3 °F -13.0 °F 77% 30.21 in 3.0 mi ENE 13.8 mph - 0.02 in Snow Light Snow
1:55 AM -7.6 °F -26.6 °F -13.0 °F 77% 30.22 in 1.8 mi ENE 11.5 mph - 0.04 in Snow Light Snow
2:15 AM -7.6 °F -28.3 °F -13.0 °F 77% 30.21 in 1.8 mi ENE 13.8 mph - 0.01 in Snow Light Snow
2:35 AM -7.6 °F -28.3 °F -13.0 °F 77% 30.22 in 2.5 mi ENE 13.8 mph 17.3 mph 0.02 in Snow Light Snow
2:55 AM -7.6 °F -28.3 °F -14.8 °F 71% 30.22 in 2.5 mi ENE 13.8 mph - 0.02 in Rain Light Freezing Rain
3:15 AM -7.6 °F -29.1 °F -14.8 °F 71% 30.21 in 2.5 mi ENE 15.0 mph - N/A Rain Light Freezing Rain
3:35 AM -7.6 °F -30.5 °F -14.8 °F 71% 30.21 in 2.5 mi NE 17.3 mph - N/A Rain Light Freezing Rain
3:55 AM -7.6 °F -30.5 °F -16.6 °F 65% 30.21 in 4.0 mi ENE 17.3 mph - N/A   Haze
4:15 AM -9.4 °F -32.1 °F -16.6 °F 71% 30.21 in 4.0 mi ENE 16.1 mph - N/A   Haze
4:35 AM -9.4 °F -29.8 °F -14.8 °F 77% 30.21 in 3.0 mi NE 12.7 mph - N/A   Haze
4:55 AM -9.4 °F -30.6 °F -16.6 °F 71% 30.22 in 4.0 mi ENE 13.8 mph - N/A   Haze
5:15 AM -9.4 °F -31.4 °F -16.6 °F 71% 30.22 in 4.0 mi ENE 15.0 mph - N/A   Haze
5:35 AM -9.4 °F -32.1 °F -16.6 °F 71% 30.21 in 3.0 mi ENE 16.1 mph - N/A Snow Light Snow
5:55 AM -9.4 °F -28.9 °F -16.6 °F 71% 30.22 in 3.0 mi ENE 11.5 mph - N/A   Haze
6:15 AM -9.4 °F -29.8 °F -16.6 °F 71% 30.23 in 2.5 mi ENE 12.7 mph - N/A Snow Light Snow
6:35 AM -9.4 °F -30.6 °F -16.6 °F 71% 30.24 in 5.0 mi NE 13.8 mph - N/A   Haze
6:55 AM -9.4 °F -32.1 °F -18.4 °F 65% 30.24 in 5.0 mi ENE 16.1 mph 20.7 mph N/A   Haze
7:15 AM -9.4 °F -32.8 °F -18.4 °F 65% 30.24 in 5.0 mi NE 17.3 mph 20.7 mph N/A   Haze
7:35 AM -11.2 °F -35.2 °F -18.4 °F 70% 30.25 in 3.0 mi ENE 17.3 mph - N/A Snow Light Snow
7:55 AM -9.4 °F -32.1 °F -16.6 °F 71% 30.24 in 3.0 mi ENE 16.1 mph - N/A Snow Light Snow
8:15 AM -11.2 °F -34.4 °F -18.4 °F 70% 30.26 in 1.5 mi ENE 16.1 mph 20.7 mph N/A   Haze
8:35 AM -11.2 °F -35.2 °F -18.4 °F 70% 30.27 in 3.0 mi ENE 17.3 mph - N/A   Haze
8:55 AM -9.4 °F -31.4 °F -16.6 °F 71% 30.26 in 4.0 mi ENE 15.0 mph 19.6 mph N/A   Haze
9:15 AM -9.4 °F -31.4 °F -16.6 °F 71% 30.27 in 4.0 mi ENE 15.0 mph - N/A   Haze
9:35 AM -9.4 °F -28.9 °F -16.6 °F 71% 30.28 in 2.5 mi NE 11.5 mph - N/A Snow Light Snow
9:55 AM -9.4 °F -31.4 °F -16.6 °F 71% 30.29 in 2.5 mi NE 15.0 mph - N/A Snow Light Snow
10:15 AM -9.4 °F -30.6 °F -18.4 °F 65% 30.29 in 4.0 mi ENE 13.8 mph - N/A   Haze
10:35 AM -9.4 °F -30.6 °F -16.6 °F 71% 30.29 in 5.0 mi ENE 13.8 mph - N/A   Haze
10:55 AM -9.4 °F -32.1 °F -16.6 °F 71% 30.30 in 7.0 mi ENE 16.1 mph - N/A   Mostly Cloudy
11:15 AM -9.4 °F -32.8 °F -18.4 °F 65% 30.30 in 8.0 mi ENE 17.3 mph - N/A   Overcast
11:35 AM -7.6 °F -27.5 °F -18.4 °F 59% 30.30 in 9.0 mi NE 12.7 mph - N/A   Overcast
11:55 AM -7.6 °F -28.3 °F -18.4 °F 59% 30.29 in 10.0 mi ENE 13.8 mph - N/A   Overcast
12:15 PM -7.6 °F -29.1 °F -18.4 °F 59% 30.29 in 10.0 mi ENE 15.0 mph - N/A   Overcast
12:35 PM -9.4 °F -30.6 °F -18.4 °F 65% 30.29 in 10.0 mi ENE 13.8 mph - N/A   Overcast
12:55 PM -9.4 °F -30.6 °F -18.4 °F 65% 30.29 in 10.0 mi NE 13.8 mph - N/A   Mostly Cloudy
1:15 PM -7.6 °F -29.1 °F -18.4 °F 59% 30.29 in 10.0 mi ENE 15.0 mph - N/A   Mostly Cloudy
1:35 PM -7.6 °F -28.3 °F -18.4 °F 59% 30.28 in 10.0 mi ENE 13.8 mph - N/A   Mostly Cloudy
1:55 PM -7.6 °F -29.8 °F -16.6 °F 65% 30.28 in 10.0 mi ENE 16.1 mph - N/A   Mostly Cloudy
2:15 PM -9.4 °F -29.8 °F -18.4 °F 65% 30.29 in 10.0 mi ENE 12.7 mph - N/A   Scattered Clouds
2:35 PM -9.4 °F -30.6 °F -18.4 °F 65% 30.28 in 10.0 mi ENE 13.8 mph - N/A   Scattered Clouds
2:55 PM -9.4 °F -29.8 °F -18.4 °F 65% 30.28 in 10.0 mi ENE 12.7 mph - N/A   Scattered Clouds
3:15 PM -9.4 °F -29.8 °F -18.4 °F 65% 30.28 in 10.0 mi ENE 12.7 mph - N/A   Mostly Cloudy
3:35 PM -9.4 °F -30.6 °F -16.6 °F 71% 30.29 in 10.0 mi ENE 13.8 mph - N/A   Mostly Cloudy
3:55 PM -9.4 °F -27.9 °F -16.6 °F 71% 30.30 in 10.0 mi NE 10.4 mph - N/A   Mostly Cloudy
4:15 PM -9.4 °F -30.6 °F -18.4 °F 65% 30.31 in 10.0 mi NE 13.8 mph - N/A   Overcast
4:35 PM -9.4 °F -29.8 °F -18.4 °F 65% 30.31 in 10.0 mi NE 12.7 mph - N/A   Overcast
4:55 PM -9.4 °F -30.6 °F -18.4 °F 65% 30.31 in 10.0 mi NE 13.8 mph - N/A   Overcast
5:15 PM -9.4 °F -30.6 °F -18.4 °F 65% 30.31 in 10.0 mi NE 13.8 mph - N/A   Mostly Cloudy
5:35 PM -9.4 °F -29.8 °F -18.4 °F 65% 30.32 in 10.0 mi ENE 12.7 mph - N/A   Mostly Cloudy
5:55 PM -9.4 °F -27.9 °F -16.6 °F 71% 30.32 in 10.0 mi ENE 10.4 mph - N/A   Mostly Cloudy
6:15 PM -9.4 °F -25.6 °F -18.4 °F 65% 30.32 in 10.0 mi ENE 8.1 mph - N/A   Mostly Cloudy
6:35 PM -9.4 °F -29.8 °F -16.6 °F 71% 30.32 in 10.0 mi ENE 12.7 mph - N/A   Mostly Cloudy
6:55 PM -9.4 °F -28.9 °F -18.4 °F 65% 30.32 in 10.0 mi ENE 11.5 mph - N/A   Scattered Clouds
7:15 PM -9.4 °F -29.8 °F -16.6 °F 71% 30.32 in 10.0 mi ENE 12.7 mph - N/A   Partly Cloudy
7:35 PM -9.4 °F -28.9 °F -16.6 °F 71% 30.31 in 10.0 mi ENE 11.5 mph - N/A   Mostly Cloudy
7:55 PM -9.4 °F -29.8 °F -16.6 °F 71% 30.31 in 10.0 mi ENE 12.7 mph - N/A   Mostly Cloudy
8:15 PM -9.4 °F -29.8 °F -16.6 °F 71% 30.31 in 10.0 mi ENE 12.7 mph - N/A   Mostly Cloudy
8:35 PM -9.4 °F -27.9 °F -16.6 °F 71% 30.31 in 10.0 mi ENE 10.4 mph - N/A   Mostly Cloudy
8:55 PM -9.4 °F -27.9 °F -16.6 °F 71% 30.30 in 10.0 mi ENE 10.4 mph - N/A   Overcast
9:15 PM -9.4 °F -27.9 °F -16.6 °F 71% 30.29 in 10.0 mi East 10.4 mph - N/A   Mostly Cloudy
9:35 PM -9.4 °F -25.6 °F -16.6 °F 71% 30.29 in 10.0 mi East 8.1 mph - N/A   Mostly Cloudy
9:55 PM -9.4 °F -20.9 °F -16.6 °F 71% 30.30 in 10.0 mi East 4.6 mph - N/A   Partly Cloudy
10:15 PM -9.4 °F -24.3 °F -16.6 °F 71% 30.30 in 10.0 mi East 6.9 mph - N/A   Scattered Clouds
10:35 PM -9.4 °F -22.7 °F -16.6 °F 71% 30.30 in 10.0 mi East 5.8 mph - N/A   Scattered Clouds
10:55 PM -9.4 °F -22.7 °F -16.6 °F 71% 30.30 in 10.0 mi East 5.8 mph - N/A   Clear
11:15 PM -9.4 °F -20.9 °F -16.6 °F 71% 30.29 in 10.0 mi East 4.6 mph - N/A   Scattered Clouds
11:35 PM -9.4 °F -18.6 °F -16.6 °F 71% 30.29 in 10.0 mi East 3.5 mph - N/A   Mostly Cloudy
11:55 PM -9.4 °F -18.6 °F -16.6 °F 71% 30.30 in 10.0 mi East 3.5 mph - N/A   Overcast